Location: Newark
(57.7279°N, 5.6916°W)
Time: 15:30:59
(UTC+00:00)

N. Korean satellite - Pass Details

Date: 08 December 2019
Orbit: 454 x 507 km, 97.2° (Epoch: 28 January)

Event Time Altitude Azimuth Distance (km) Brightness Sun altitude
Rises 18:05:23 0° 197° (SSW) 2,607 10.7 -17.9°
Reaches altitude 10° 18:07:45 10° 211° (SSW) 1,725 10.0 -18.2°
Maximum altitude 18:10:51 24° 267° (W) 1,073 9.1 -18.6°
Drops below altitude 10° 18:13:57 10° 324° (NW) 1,724 9.6 -19.0°
Sets 18:16:19 0° 338° (NNW) 2,607 10.4 -19.3°
